Powrót do katalogu

FENGYUN 1C DEB

LostPO
NORAD 31719·DEBRIS·🇨🇳 China

Wystrzelony May 10, 1999 z Taiyuan Satellite Launch Center

Loading…

Następne Przeloty (najbliższe 24 godziny)

TLE

NieaktualneSource: Space-Track

Epoka: Dec 11, 2025, 02:54 UTC

1 31719U 99025CDS 25345.12105288  .00008270  00000-0  47932-2 0  9996
2 31719  97.5479 103.9626 0158268  69.9645 291.8485 14.02892826587841

Śledź FENGYUN 1C DEB w czasie rzeczywistym z AllMySat

Download on the App Store